Вернуться в каталог

STARLINK-34689

АктивенСвязьSSO
NORAD 64949·PAYLOAD·🇺🇸 United States

Запущен Jul 26, 2025 с Vandenberg Space Force Base

Loading…

Ближайшие Пролёты (ближайшие 24 часа)

TLE

СвежийSource: CelesTrak SupGP

Эпоха: Sep 15, 2026, 03:54 UTC

1 64949C 25158T   26258.16298611 -.00030017  00000+0 -93102-3 0  2588
2 64949  97.2844 116.5390 0001679  98.0628  59.9657 15.33480062    13

Отслеживайте STARLINK-34689 в реальном времени с AllMySat

Download on the App Store